Location: Unspecified
(0.0000°N, 0.0000°E)
Time: 18:49:47
(UTC+00:00)

Envisat - Pass Details

Date: 15 October 2021
Orbit: 764 x 766 km, 98.2° (Epoch: 23 October)

Event Time Altitude Azimuth Distance (km) Brightness Sun altitude
Rises 05:04:48 0° 0° (N) 3,212 6.1 -10.1°
Reaches altitude 10° 05:07:11 10° 355° (N) 2,289 5.3 -9.5°
Maximum altitude 05:11:59 46° 282° (WNW) 1,020 3.2 -8.4°
Drops below altitude 10° 05:16:50 10° 209° (SSW) 2,300 5.3 -7.2°
Sets 05:19:13 0° 203° (SSW) 3,228 6.1 -6.6°
